www.pogodaiklimat.ru

Погода и климат >> Архив погоды >> Россия >> Красноярский край >> Тюхтет


ПОГОДА в Тюхтете

  • Прогноз погоды в Тюхтете
  • Монитор погоды в Тюхтете

АРХИВ ПОГОДЫ в Тюхтете

Время (UTC), дата Ветер
(напр.,м/с)
 
Видим.   Явления Облачность Т
(С)
Тd
(С)
f
(%)
Тe
(С)
Тes
(С)
Комфортность P
(гПа)
Po
(гПа)
Тmin
(С)
Tmax
(С)
R
(мм)
R24
(мм)
S
(см)
15 19.03 З 1 н/о {ливн. осадки} н/о -5.5 -6.1 96 -8 -8 1030.3 1003.8
18 19.03 З 2 н/о слаб. ливневой снег 10/10 600 м
[Cb cap]
-5.0 -5.8 94 -9 -9 1030.9 1004.4
21 19.03 З 1 н/о слаб. ливневой снег 10/10 600 м
[Cb cap]
-5.7 -6.1 97 -8 -8 1031.6 1005.0
00 20.03 СЗ 1 20 км {ливн. осадки} 9/8 600 м
[Cb cap Ci fib]
-6.1 -6.6 96 -9 -9 1032.8 1006.2 -6.5 0.6 27
03 20.03 З 2 10 км слаб. ливневой снег 10/10 600 м
[Cb cap]
-4.7 -6.7 86 -9 -9 1033.8 1007.2
06 20.03 З 1 50 км {ливн. осадки} 9/8 600 м
[Cb cap Ci fib]
-3.0 -7.1 73 -5 -4 1034.1 1007.7
09 20.03 СЗ 2 50 км 9/8 600 м
[Sc diur, vesp Ci fib]
-2.1 -7.7 65 -6 -5 1033.8 1007.5
12 20.03 З 2 50 км 9/3 600 м
[Sc diur, vesp Ac trans Ci fib]
-2.7 -7.8 68 -6 -6 1034.3 1007.9 -2.0 0.7
15 20.03 З 1 н/о 8/8 600 м
[Sc diur, vesp]
-3.2 -7.3 73 -5 -5 1034.6 1008.2
18 20.03 Ю 1 500 м 8/8
[Sc diur, vesp]
-3.5 -7.7 73 -6 -6 1033.8 1007.3
21 20.03 ЮЗ 1 н/о 9/6 600 м
[Sc diur, vesp Ci fib]
-3.8 -7.5 75 -6 -6 1033.3 1006.8
00 21.03 ЮЗ 1 20 км 9/6 600 м
[Sc diur, vesp Ci fib]
-3.9 -7.5 76 -6 -6 1033.3 1006.8 -4.0 27
03 21.03 Ю 3 50 км 9/8 600 м
[Sc diur, vesp Ci fib]
-2.3 -7.8 66 -7 -7 1033.3 1007.0 -4.4
06 21.03 Ю 2 50 км 9/0
[Ac trans Ci fib]
+1.3 -6.7 55 -2 +3 1032.1 1006.2
09 21.03 ЮЗ 2 50 км 6/0
[Ci fib]
+4.0 -6.1 48 +2 +5 1030.4 1004.8
12 21.03 ЮЗ 3 50 км 6/0
[Ac trans]
+2.2 -6.3 53 -1 -1 1029.7 1003.9 +4.2
15 21.03 Ю 2 н/о 6/0
[Ac trans]
-1.2 -7.1 64 -5 -5 1029.4 1003.3
18 21.03 Ю 1 н/о 6/0
[Ci fib]
-3.0 -7.3 72 -5 -5 1028.6 1002.4
21 21.03 Ю 2 н/о 4/0
[Ci fib]
-4.3 -7.7 77 -8 -8 1027.0 1000.7
00 22.03 Ю 2 50 км 6/0
[Ac trans]
-5.9 -8.6 81 -10 -10 1026.3 999.8 -6.0 25
03 22.03 Ю 2 50 км 8/0
[Ac trans Ci fib]
-0.5 -7.4 60 -4 -1 1024.6 998.7
06 22.03 ЮЗ 4
{10}
50 км 9/0
[Ac trans Ci fib]
+4.3 -7.9 41 +1 +4 1022.0 996.6
09 22.03 ЮЗ 4
{10}
50 км 9/0
[Ci fib]
+6.4 -8.8 33 +4 +6 1019.9 994.8
12 22.03 ЮЗ 4
{12}
50 км 9/0
[Ci fib]
+5.2 -8.8 36 +2 +2 1019.3 994.0 +6.7
15 22.03 З 3 н/о 8/0
[Ci fib]
+2.3 -7.8 47 -1 -1 1020.4 994.8
18 22.03 З 2 н/о 8/0
[Ci fib]
+0.3 -7.2 57 -3 -3 1021.0 995.2
21 22.03 ЮЗ 2 н/о н/о -1.9 -7.5 66 -5 -5 1021.3 995.3
00 23.03 Ю 1 50 км 9/0
[Ci fib]
-3.4 -7.6 73 -5 -5 1021.3 995.2 -3.7 24
03 23.03 ЮЗ 2 50 км 8/0
[Ac trans Ci fib]
+1.2 -6.1 58 -2 +1 1021.2 995.5 -3.9
06 23.03 ЮЗ 2 50 км 9/6 600 м
[Sc diur, vesp Ci fib]
+4.0 -6.0 48 +2 +4 1020.5 995.1
09 23.03 ЮЗ 3 50 км 9/8 600 м
[Sc diur, vesp Ci fib]
+4.5 -7.6 41 +2 +2 1019.2 993.9
12 23.03 ЮЗ 1 50 км 8/3 600 м
[Sc diur, vesp Ac trans Ci fib]
+3.3 -6.8 47 +3 +3 1018.7 993.3 +6.2
15 23.03 ЮЗ 1 н/о н/о -0.5 -6.8 62 -2 -2 1019.2 993.4
18 23.03 Ю 2 н/о 9/8 600 м
[Sc diur, vesp Ac trans Ci fib]
-2.5 -6.3 75 -6 -6 1018.7 992.7
21 23.03 Ю 1 н/о 9/6 600 м
[Sc diur, vesp Ac trans Ci fib]
-3.4 -6.4 80 -6 -6 1018.1 992.0
00 24.03 Ю 2 50 км 9/8 600 м
[Sc diur, vesp Ci fib]
-1.5 -4.4 81 -5 -5 1017.3 991.5 -4.3 23
03 24.03 Ю 1 н/о н/о +3.1 -2.4 67 +2 +2 1016.3 990.9
06 24.03 ЮЗ 3 50 км 9/6 600 м
[Sc diur, vesp Ac trans Ci fib]
+4.6 -4.9 50 +2 +3 1015.5 990.3
09 24.03 ЮЗ 3 50 км {ливн. осадки} 9/8 600 м
[Cb cap Ci fib]
+3.6 -1.2 71 0 0 1015.3 990.0
12 24.03 З 2 50 км {ливн. осадки} 9/3 600 м
[Cb cap Ac trans Ci fib]
+5.6 -2.3 57 +4 +4 1015.7 990.4 0.3
15 24.03 СЗ 1 н/о 9/3 600 м
[Sc diur, vesp Ac trans Ci fib]
+1.2 -2.8 75 -0 -0 1016.7 991.1
18 24.03 Ю 1 н/о в посл. час дождь {ливн. осадки} 10/10 600 м
[Cb cap]
+0.1 -1.4 90 -2 -2 1017.0 991.3
21 24.03 СЗ 2 н/о {ливн. осадки} 9/8
[Cb cap Ci fib]
-0.8 -1.2 97 -5 -5 1017.8 992.1
00 25.03 СЗ 1 50 км в посл. час ливневой снег 9/8 600 м
[Cb cap Ci fib]
-2.0 -2.1 99 -4 -4 1019.6 993.7 -2.0 0.4 22
03 25.03 СЗ 2 50 км 9/0
[Ac trans Ci fib]
-0.5 -3.1 83 -4 -2 1021.7 995.9 -2.1
06 25.03 С 2 50 км 9/8 600 м
[Cb cap Ci fib]
+2.5 -7.3 48 0 +2 1023.3 997.7
09 25.03 СЗ 4 50 км 9/8 600 м
[Cb cap Ci fib]
+3.2 -8.6 42 -1 -0 1024.7 999.2
12 25.03 С 3 50 км 8/8 600 м
[Cb cap]
+1.9 -8.5 46 -2 -2 1027.0 1001.2 +3.6
15 25.03 В 2 н/о 8/8 600 м
[Cu hum]
-1.6 -8.0 62 -5 -5 1029.9 1003.7
18 25.03 штиль 0 н/о 4/0
[Ci fib]
-6.6 -8.3 88 -7 -7 1031.7 1005.0
21 25.03 штиль 0 н/о 6/0
[Ci fib]
-8.7 -9.7 92 -9 -9 1033.0 1006.0
00 26.03 штиль 0 50 км ?/? -10.6 -11.1 96 -11 -11 1034.7 1007.5 -10.6 20
03 26.03 В 1 50 км 4/3 600 м
[Sc diur, vesp Ac trans]
-1.2 -6.6 67 -3 0 1035.3 1009.0
06 26.03 штиль 0 50 км 6/3 600 м
[Sc diur, vesp Ac trans Ci fib]
+1.7 -7.4 51 +1 +7 1034.9 1008.9
09 26.03 Ю 2 50 км 8/0
[Ci fib]
+2.6 -8.3 44 0 +4 1033.8 1007.9

 

Местоположение метеостанции Тюхтет (Красноярский край, Россия): широта 56.53 долгота 89.32 высота над уровнем моря 205 м.

В архиве по умолчанию представлена погода в Тюхтете за последнюю неделю. Архивные данные за месяц целиком и за предыдущие месяцы, начиная с января 2011 года, Вы можете получить, выбрав интересующий диапазон дат из раскрывающегося списка и нажав кнопку "Ввод!".


*Определитесь, кто Вы:
робот инопланетянин человек

Внимание! Время в таблицах - всемирное. Для получения местного времени необходимо прибавить поправку, которая равна 7 ч.

Смотрите также архив погоды в соседних городах и на ближайших метеорологических станциях:

Погода в Боготоле (Красноярский край, Россия) (37 км)
Погода в Тяжине (Кемеровская область, Россия) (67 км)
Погода в Большом Улуе (Красноярский край, Россия) (77 км)
Погода в Ачинске (Красноярский край, Россия) (79 км)
Погода в Назарово (Красноярский край, Россия) (83 км)
Погода в Новобирилюссах (Красноярский край, Россия) (95 км)
Погода в Тисуле (Кемеровская область, Россия) (107 км)
Погода в Мариинске (Кемеровская область, Россия) (108 км)
Погода в Тегульдете (Томская область, Россия) (111 км)
Погода в Шарыпово (Красноярский край, Россия) (111 км)

Пояснения к столбцам:

Ветер - указаны скорость ветра в м/с - средняя за 10 мин, порывы в срок и между сроками (в фигурных скобках) и направление, откуда дует ветер: С - северный, СВ - северо-восточный, В - восточный, ЮВ - юго-восточный, Ю - южный, ЮЗ - юго-западный, З - западный, СЗ - северо-западный.
Видимость - горизонтальная дальность видимости в метрах или километрах. При видимости от 1 до 10 км при отсутствии осадков обычно наблюдается дымка, при ухудшении видимости до 1 км и менее - туман. В сухую погоду видимость может ухудшаться дымом, пылью или мглою.
Явления - указаны атмосферные явления, наблюдавшиеся в срок или в последний час перед сроком; фигурными скобками обозначены явления, наблюдавшиеся между сроками (за 1-3 часа до срока); квадратными скобками обозначены град или гололедные отложения с указанием их диаметра в мм.
Облачность - указаны через наклонную черту общая и нижняя облачность в баллах и высота нижней границы облаков в метрах; квадратными скобками обозначены формы облаков: Ci - перистые, Cs - перисто-слоистые, Cc - перисто-кучевые, Ac - высококучевые, As - высокослоистые, Sc - слоисто-кучевые, Ns - слоисто-дождевые, Cu - кучевые, Cb - кучево-дождевые. Подробнее классификацию облаков см. в Атласе облаков (PDF).
T - Температура воздуха - температура, измеренная на высоте 2 м над землей.
Td - Температура точки росы - температура, при понижении до которой содержащийся в воздухе водяной пар достигнет насыщения.
f - Относительная влажность воздуха - влажноcть воздуха, измеренная на высоте 2 м над землей.
Te - Эффективная температура - температура, которую ощущает одетый по сезону человек в тени. Характеристика душности погоды. При расчете учитывается влияние влажности воздуха и скорости ветра на теплоощущения человека.
Tes - Эффективная температура на солнце - температура, которую ощущает человек, с поправкой на солнечный нагрев. Характеристика знойности погоды. Зависит от высоты солнца над горизонтом, облачности и скорости ветра. Ночью, в пасмурную погоду, а также при ветре 12 м/с и более поправка равна нулю.
P - Атмосферное давление - приведенное к уровню моря атмосферное давление.
Po - Атмосферное давление - измеренное на уровне метеостанции атмосферное давление.
Tmin - Минимальная температура - минимум температуры воздуха на высоте 2 м над землей.
Tmax - Максимальная температура - максимум температуры воздуха на высоте 2 м над землей.
R - Количество осадков - Количество выпавших осадков за период времени, мм. При наведении курсора мыши на число - период времени, за который выпало указанное количество осадков.
R24 - Количество осадков - Количество выпавших осадков за 24 часа, мм.
S - Снежный покров - Высота снежного покрова, см. При наведении курсора мыши на число - состояние снежного покрова и степень покрытия местности в баллах.